Location: Unspecified
(0.0000°N, 0.0000°E)
Time: 18:26:03
(UTC+00:00)

Envisat - Pass Details

Date: 12 May 2021
Orbit: 764 x 766 km, 98.1° (Epoch: 14 May)

Event Time Altitude Azimuth Distance (km) Brightness Sun altitude
Rises 05:07:52 0° 10° (N) 3,213 6.6 -11.5°
Reaches altitude 10° 05:10:10 10° 9° (N) 2,290 5.8 -11.0°
Maximum altitude 05:15:13 82° 282° (WNW) 775 3.0 -9.8°
Drops below altitude 10° 05:20:18 10° 195° (SSW) 2,301 5.2 -8.6°
Sets 05:22:36 0° 194° (SSW) 3,230 5.9 -8.0°
